This is the latest recevied weather packets stored in our database for station/object CYVR. If no packets are shown the sender has not sent any weather packets the latest 10 day(s).
| Time | Temp. | Humidity | Pressure | Rain* | Wind** | Luminosity | Snow |
|---|---|---|---|---|---|---|---|
| 1777436004 | 11.67° C | 76% | 1023.7 hPa | - | - | - | - |
| 1777435406 | 10.56° C | 93% | 1023 hPa | - | - | - | - |
| 1777434804 | 10.56° C | 93% | 1023 hPa | - | - | - | - |
| 1777434202 | 10.56° C | 93% | 1023 hPa | - | - | - | - |
| 1777433605 | 10.56° C | 93% | 1023 hPa | - | - | - | - |
| 1777432402 | 10.56° C | 93% | 1023 hPa | - | - | - | - |
| 1777429400 | 10.56° C | 93% | 1023 hPa | - | - | - | - |
| 1777428799 | 10.56° C | 93% | 1023 hPa | - | - | - | - |
| 1777428202 | 12.78° C | 82% | 1023 hPa | - | - | - | - |
| 1777426402 | 12.78° C | 82% | 1023 hPa | - | - | - | - |
| 1777422798 | 13.89° C | 76% | 1023 hPa | - | - | - | - |
| 1777422204 | 13.89° C | 76% | 1023 hPa | - | - | - | - |
| 1777421602 | 13.89° C | 76% | 1023 hPa | - | - | - | - |
| 1777410800 | 12.78° C | 93% | 1022.7 hPa | - | - | - | - |
| 1777409004 | 10.56° C | 93% | 1025.7 hPa | - | - | - | - |
| 1777407928 | 10.56° C | 93% | 1025.7 hPa | - | - | - | - |
| 1777404806 | 10.56° C | 93% | 1022.7 hPa | - | - | - | - |
| 1777399400 | 10.56° C | 87% | 1022 hPa | - | - | - | - |
| 1777381401 | 10.56° C | 81% | 1019.3 hPa | - | - | - | - |
| 1777380800 | 10.56° C | 81% | 1019.3 hPa | - | - | - | - |
| 1777377804 | 10.56° C | 93% | 1019 hPa | - | - | - | - |
| 1777376002 | 10.56° C | 93% | 1019 hPa | - | - | - | - |
| 1777374203 | 10.56° C | 93% | 1018.6 hPa | - | - | - | - |
| 1777372398 | 10.56° C | 93% | 1018.6 hPa | - | - | - | - |
| 1777371801 | 10.56° C | 93% | 1018.6 hPa | - | - | - | - |
* Rain since midnight (hover to see other rain measurements)
** Current wind speed in m/s (hover to see current wind gust speed)